FW9496 Weather Reports


Display with metric or nautical units.
time (UTC)temp
F
wind
direction
speed
MPH
gust
MPH
rain 1hr
in
rain 24hr
in
rain mn
in
humidity
%
barometer
mb
20260504201501 67 319 5.0 16.0 0.00 0.00 0.00 16 1003.4
20260504201001 67 257 5.0 12.0 0.00 0.00 0.00 17 1003.4
20260504200502 66 28 6.0 12.0 0.00 0.00 0.00 17 1003.6
20260504200225 66 74 7.0 12.0 0.00 0.00 0.00 17 1003.6
20260504195501 66 319 7.0 13.0 0.00 0.00 0.00 17 1003.7
20260504195003 67 310 8.0 13.0 0.00 0.00 0.00 17 1003.7
20260504194501 67 334 7.0 13.0 0.00 0.00 0.00 17 1003.6
20260504194227 67 321 6.0 13.0 0.00 0.00 0.00 17 1003.8
20260504193502 67 259 6.0 13.0 0.00 0.00 0.00 17 1003.7
20260504193000 66 304 6.0 13.0 0.00 0.00 0.00 18 1004.0
20260504192501 66 291 5.0 13.0 0.00 0.00 0.00 18 1004.0
20260504192001 65 333 6.0 14.0 0.00 0.00 0.00 18 1004.1
20260504191504 65 294 8.0 14.0 0.00 0.00 0.00 18 1004.2
20260504191227 65 306 7.0 15.0 0.00 0.00 0.00 17 1004.2
20260504190500 66 39 8.0 16.0 0.00 0.00 0.00 18 1004.2
20260504190002 66 337 9.0 16.0 0.00 0.00 0.00 18 1004.4
20260504185500 67 341 6.0 15.0 0.00 0.00 0.00 18 1004.4
20260504185000 66 315 4.0 12.0 0.00 0.00 0.00 18 1004.4
20260504184503 66 233 4.0 12.0 0.00 0.00 0.00 19 1004.7
20260504184209 65 266 6.0 12.0 0.00 0.00 0.00 19 1004.8
20260504183001 65 250 7.0 14.0 0.00 0.00 0.00 19 1004.8
20260504182731 64 296 7.0 14.0 0.00 0.00 0.00 19 1004.9
20260504182000 65 325 5.0 12.0 0.00 0.00 0.00 19 1005.0
20260504181500 65 267 4.0 14.0 0.00 0.00 0.00 18 1005.0
20260504181002 65 342 3.0 14.0 0.00 0.00 0.00 20 1005.0
20260504180727 65 271 3.0 9.0 0.00 0.00 0.00 20 1005.2
20260504180118 64 163 4.0 9.0 0.00 0.00 0.00 20 1005.3
20260504175502 64 269 3.0 9.0 0.00 0.00 0.00 20 1005.3
20260504175001 64 315 3.0 9.0 0.00 0.00 0.00 21 1005.4
20260504174500 64 340 5.0 10.0 0.00 0.00 0.00 21 1005.4
20260504174000 64 82 4.0 10.0 0.00 0.00 0.00 21 1005.5
20260504173500 64 40 2.0 6.0 0.00 0.00 0.00 21 1005.7
20260504173452 65 142 2.0 8.0 0.00 0.00 0.00 23 1005.5
20260504172500 64 233 4.0 8.0 0.00 0.00 0.00 23 1005.7
20260504172001 63 62 4.0 8.0 0.00 0.00 0.00 24 1005.7
20260504171731 63 78 4.0 11.0 0.00 0.00 0.00 23 1005.7
20260504171001 63 171 5.0 11.0 0.00 0.00 0.00 24 1005.8
20260504170500 64 254 6.0 11.0 0.00 0.00 0.00 24 1005.8
20260504151004 50 53 7.0 9.0 0.00 0.00 0.00 40 1006.6
20260504150504 49 40 7.0 10.0 0.00 0.00 0.00 41 1006.5
20260504141005 44 82 1.0 4.0 0.00 0.00 0.00 48 1007.0
20260504140502 43 59 1.0 6.0 0.00 0.00 0.00 50 1007.0
20260504130204 37 16 2.0 5.0 0.00 0.00 0.00 59 1006.6
20260504110159 39 90 0.0 2.0 0.00 0.00 0.00 55 1006.5
20260504100409 41 320 0.0 1.0 0.00 0.00 0.00 49 1006.5
20260504081901 44 230 1.0 5.0 0.00 0.00 0.00 43 1007.2
20260504081402 44 223 1.0 5.0 0.00 0.00 0.00 43 1007.3
20260504080901 44 238 2.0 5.0 0.00 0.00 0.00 43 1007.2
20260504080404 44 240 2.0 5.0 0.00 0.00 0.00 42 1007.2
20260504070400 46 266 0.0 0.0 0.00 0.00 0.00 40 1007.3
20260504050403 50 71 2.0 5.0 0.00 0.00 0.00 32 1007.6
20260504045901 51 55 3.0 5.0 0.00 0.00 0.00 31 1007.6
20260504045402 51 85 3.0 5.0 0.00 0.00 0.00 31 1007.6
20260504044904 52 76 3.0 5.0 0.00 0.00 0.00 30 1007.7
20260504044402 52 98 3.0 5.0 0.00 0.00 0.00 29 1007.7
20260504043902 53 90 3.0 6.0 0.00 0.00 0.00 29 1007.7
20260504043402 53 101 3.0 6.0 0.00 0.00 0.00 28 1007.7
20260504042906 56 89 3.0 7.0 0.00 0.00 0.00 26 1007.7
20260504042402 56 309 4.0 7.0 0.00 0.00 0.00 26 1007.6
20260504041902 56 325 5.0 8.0 0.00 0.00 0.00 25 1007.6
20260504041402 56 313 5.0 8.0 0.00 0.00 0.00 25 1007.5
20260504040904 56 311 6.0 9.0 0.00 0.00 0.00 25 1007.5
20260504035902 56 292 7.0 11.0 0.00 0.00 0.00 26 1007.5
20260504035403 56 303 7.0 11.0 0.00 0.00 0.00 25 1007.5
20260504034903 56 295 8.0 11.0 0.00 0.00 0.00 25 1007.3
20260504034402 57 304 8.0 11.0 0.00 0.00 0.00 24 1007.3
20260504033903 57 302 6.0 9.0 0.00 0.00 0.00 24 1007.3
20260504033405 58 306 6.0 9.0 0.00 0.00 0.00 24 1007.3
20260504033132 58 309 5.0 9.0 0.00 0.00 0.00 24 1007.2
20260504032842 58 334 5.0 8.0 0.00 0.00 0.00 24 1007.2
20260504031402 58 306 6.0 8.0 0.00 0.00 0.00 23 1007.3
20260504030904 58 310 6.0 11.0 0.00 0.00 0.00 23 1007.1
20260504030403 58 324 6.0 11.0 0.00 0.00 0.00 23 1007.0
20260504025404 60 355 5.0 9.0 0.00 0.00 0.00 22 1007.0
20260504024902 60 334 6.0 12.0 0.00 0.00 0.00 21 1007.0
20260504024401 61 322 7.0 12.0 0.00 0.00 0.00 20 1007.0
20260504023903 62 303 9.0 13.0 0.00 0.00 0.00 20 1007.1
20260504023855 62 309 9.0 13.0 0.00 0.00 0.00 19 1006.9
20260504022903 62 302 8.0 13.0 0.00 0.00 0.00 20 1006.9
20260504022403 62 294 7.0 13.0 0.00 0.00 0.00 19 1007.0
20260504022355 62 267 6.0 12.0 0.00 0.00 0.00 20 1006.9
20260504021403 62 296 6.0 12.0 0.00 0.00 0.00 19 1006.9
20260504020903 63 290 8.0 12.0 0.00 0.00 0.00 19 1006.9
20260504020402 63 290 9.0 14.0 0.00 0.00 0.00 18 1007.0
20260504015904 63 315 10.0 14.0 0.00 0.00 0.00 18 1006.9
20260504015403 63 294 9.0 14.0 0.00 0.00 0.00 18 1006.9
20260504014901 64 310 9.0 14.0 0.00 0.00 0.00 18 1006.9
20260504014401 64 298 9.0 18.0 0.00 0.00 0.00 18 1006.9
20260504013903 64 305 9.0 18.0 0.00 0.00 0.00 17 1006.9
20260504013402 64 338 9.0 18.0 0.00 0.00 0.00 17 1006.9
20260504012901 64 5 10.0 18.0 0.00 0.00 0.00 17 1007.0
20260504011902 65 322 11.0 18.0 0.00 0.00 0.00 17 1006.7
20260504011402 65 307 12.0 19.0 0.00 0.00 0.00 17 1006.7
20260504010903 65 313 11.0 19.0 0.00 0.00 0.00 17 1006.7
20260504010404 65 315 10.0 18.0 0.00 0.00 0.00 17 1006.7
20260504005904 65 300 10.0 18.0 0.00 0.00 0.00 17 1007.0
20260504005403 65 290 11.0 21.0 0.00 0.00 0.00 17 1006.9
20260504004905 65 296 12.0 21.0 0.00 0.00 0.00 16 1006.9
20260504004404 65 311 13.0 23.0 0.00 0.00 0.00 17 1007.0
20260504003902 66 315 14.0 23.0 0.00 0.00 0.00 16 1007.0
20260504003401 67 296 12.0 22.0 0.00 0.00 0.00 16 1006.9
20260504002901 67 308 11.0 19.0 0.00 0.00 0.00 16 1006.9
20260504002402 67 315 9.0 21.0 0.00 0.00 0.00 15 1006.9
20260504001402 66 292 13.0 21.0 0.00 0.00 0.00 15 1007.0
20260504000902 66 299 11.0 21.0 0.00 0.00 0.00 14 1007.0
20260504000403 67 293 10.0 18.0 0.00 0.00 0.00 14 1007.0
20260503235901 67 290 10.0 18.0 0.00 0.00 0.00 14 1007.0
20260503235402 67 311 9.0 18.0 0.00 0.00 0.00 13 1007.0
20260503234901 68 283 10.0 18.0 0.00 0.00 0.00 14 1007.0
20260503234402 68 291 10.0 19.0 0.00 0.00 0.00 14 1007.1
20260503233900 67 299 10.0 19.0 0.00 0.00 0.00 13 1007.2
20260503233400 68 273 11.0 29.0 0.00 0.00 0.00 14 1007.3
20260503232900 68 296 11.0 29.0 0.00 0.00 0.00 13 1007.3
20260503232403 68 42 9.0 19.0 0.00 0.00 0.00 13 1007.2
20260503231901 69 290 8.0 15.0 0.00 0.00 0.00 13 1007.5
20260503231402 68 275 7.0 14.0 0.00 0.00 0.00 14 1007.5
20260503230901 68 271 8.0 14.0 0.00 0.00 0.00 15 1007.6
20260503230355 68 284 10.0 14.0 0.00 0.00 0.00 14 1007.6
20260503225847 67 309 11.0 19.0 0.00 0.00 0.00 14 1007.6
20260503225342 67 290 10.0 19.0 0.00 0.00 0.00 13 1007.7
20260503224835 67 261 7.0 15.0 0.00 0.00 0.00 15 1007.7
20260503224331 66 292 7.0 14.0 0.00 0.00 0.00 14 1007.9
20260503223330 66 302 11.0 20.0 0.00 0.00 0.00 14 1008.2
20260503223106 67 285 10.0 19.0 0.00 0.00 0.00 13 1008.2
20260503222330 67 288 10.0 18.0 0.00 0.00 0.00 13 1008.2
20260503221830 68 290 7.0 18.0 0.00 0.00 0.00 13 1008.3
20260503221330 68 292 5.0 15.0 0.00 0.00 0.00 13 1008.3
20260503220831 67 293 7.0 19.0 0.00 0.00 0.00 14 1008.4
20260503215829 67 28 8.0 19.0 0.00 0.00 0.00 14 1008.7
20260503215331 67 226 10.0 19.0 0.00 0.00 0.00 14 1008.8
20260503214329 67 293 8.0 14.0 0.00 0.00 0.00 14 1009.0
20260503213830 67 285 7.0 15.0 0.00 0.00 0.00 15 1009.0
20260503213329 66 303 7.0 15.0 0.00 0.00 0.00 15 1009.2
20260503213057 66 210 8.0 14.0 0.00 0.00 0.00 15 1009.3
20260503211826 66 294 7.0 14.0 0.00 0.00 0.00 15 1009.4
20260503211319 65 257 5.0 14.0 0.00 0.00 0.00 16 1009.5
20260503210813 65 318 3.0 8.0 0.00 0.00 0.00 15 1009.8
20260503210309 65 267 3.0 8.0 0.00 0.00 0.00 15 1009.8
20260503205801 65 332 5.0 11.0 0.00 0.00 0.00 15 1009.8
20260503205303 65 267 7.0 15.0 0.00 0.00 0.00 16 1009.9
20260503204802 65 272 8.0 15.0 0.00 0.00 0.00 15 1010.0
20260503204305 65 292 9.0 15.0 0.00 0.00 0.00 16 1010.1
20260503203802 66 298 7.0 15.0 0.00 0.00 0.00 15 1010.1
20260503203302 66 322 6.0 13.0 0.00 0.00 0.00 17 1010.1
20260503202802 65 294 7.0 14.0 0.00 0.00 0.00 15 1010.2
20260503202304 65 287 5.0 14.0 0.00 0.00 0.00 16 1010.2
20260503201802 66 26 4.0 12.0 0.00 0.00 0.00 16 1010.4